McGrath, AK

10:55 PM AKDT on August 18, 2017 (GMT -0800)
McGrath

Weather History for PAMC - October, 2012

Change the Weather History Date:

Saturday, October 6, 2012

  Actual Average Record
Temperature  
Mean Temperature 43 °F 33 °F  
Max Temperature 47 °F 40 °F 56 °F (2003)
Min Temperature 38 °F 26 °F 5 °F (1972)
Degree Days  
Heating Degree Days 22 32  
Month to date heating degree days 133 184  
Since 1 July heating degree days 1354 1287  
Cooling Degree Days 0 0  
Month to date cooling degree days 0 0  
Year to date cooling degree days 4 20  
Moisture  
Dew Point 36 °F    
Average Humidity 0    
Maximum Humidity 0    
Minimum Humidity 0    
Precipitation  
Precipitation 0.04 in 0.06 in 0.59 in (1974)
Month to date precipitation 0.56 0.37  
Year to date precipitation 19.26 14.23  
Snow  
Snow 0.00 in 0.30 in 1.70 in (2000)
Month to date snowfall 0.4 1.2  
Since 1 July snowfall 2.0 2.7  
Since 1 September snowfall 2.0 2.7  
Snow Depth 0.00 in    
Sea Level Pressure  
Sea Level Pressure 30.14 in    
Wind  
Wind Speed 6 mph (SSW)    
Max Wind Speed 20 mph    
Max Gust Speed 26 mph    
Visibility 10 miles    
Events Rain    
T = Trace of Precipitation, MM = Missing Value Source: NWS Daily Summary

Daily Weather History Graph

Daily Weather History Graph

Search for Another Location

Airport or City:

Trip Planner

Search our weather history database for the weather conditions in past years. The results will help you decide how hot, cold, wet, or windy it might be!

Date:

Astronomy

Oct. 06, 2012 Rise Set
Actual Time 8:46 AM AKDT 7:33 PM AKDT
Civil Twilight 8:00 AM AKDT 8:18 PM AKDT
Nautical Twilight 7:07 AM AKDT 9:11 PM AKDT
Astronomical Twilight 6:11 AM AKDT 10:07 PM AKDT
Moon 10:24 PM AKDT (10/6) 4:25 PM AKDT (10/6)
Length of Visible Light 12h 18m
Length of Day
10h 47m
Waning Gibbous, 64% of the Moon is Illuminated
Oct 6
Waning Gibbous
Oct 7
Last Quarter
Oct 15
New
Oct 21
First Quarter
Oct 29
Full

Hourly Weather History & Observations

Time (AKDT) Temp. Windchill Dew Point Humidity Pressure Visibility Wind Dir Wind Speed Gust Speed Precip Events Conditions
12:53 AM 44.1 °F 41.5 °F 34.0 °F 68% 30.01 in 10.0 mi South 4.6 mph - N/A   Overcast
1:53 AM 43.0 °F 41.3 °F 34.0 °F 71% 30.02 in 10.0 mi Variable 3.5 mph - N/A   Mostly Cloudy
2:53 AM 45.0 °F 38.9 °F 34.0 °F 65% 30.04 in 10.0 mi South 12.7 mph 25.3 mph N/A   Mostly Cloudy
3:53 AM 44.1 °F 38.1 °F 34.0 °F 68% 30.04 in 10.0 mi South 11.5 mph 19.6 mph N/A   Overcast
4:50 AM 42.8 °F 36.6 °F 37.4 °F 81% 30.03 in 10.0 mi SSW 11.5 mph 19.6 mph 0.02 in Rain Light Rain
4:53 AM 42.1 °F 36.1 °F 37.0 °F 82% 30.05 in 10.0 mi South 10.4 mph 19.6 mph 0.02 in Rain Light Rain
5:19 AM 42.8 °F 37.0 °F 37.4 °F 81% 30.03 in 9.0 mi South 10.4 mph 17.3 mph 0.00 in Rain Light Rain
5:46 AM 42.8 °F 38.0 °F 37.4 °F 81% 30.04 in 10.0 mi South 8.1 mph - 0.01 in Rain Light Rain
6:53 AM 42.1 °F 38.4 °F 37.9 °F 85% 30.07 in 10.0 mi South 5.8 mph - 0.01 in Rain Light Rain
7:53 AM 42.1 °F 40.2 °F 37.9 °F 85% 30.09 in 10.0 mi Variable 3.5 mph - 0.00 in   Overcast
8:53 AM 42.1 °F 39.2 °F 39.0 °F 89% 30.11 in 10.0 mi Variable 4.6 mph - N/A   Overcast
9:22 AM 42.8 °F 36.6 °F 37.4 °F 81% 30.10 in 10.0 mi South 11.5 mph 16.1 mph N/A   Overcast
9:53 AM 43.0 °F 38.8 °F 37.9 °F 82% 30.13 in 10.0 mi South 6.9 mph - N/A   Overcast
10:53 AM 43.0 °F 38.2 °F 37.9 °F 82% 30.17 in 10.0 mi SSW 8.1 mph - N/A   Overcast
11:53 AM 45.0 °F 41.8 °F 37.9 °F 76% 30.17 in 10.0 mi South 5.8 mph - N/A   Mostly Cloudy
12:38 PM 46.4 °F 42.9 °F 37.4 °F 71% 30.17 in 10.0 mi SSW 6.9 mph - N/A   Mostly Cloudy
12:53 PM 46.0 °F 41.9 °F 37.9 °F 73% 30.19 in 10.0 mi SSW 8.1 mph - N/A   Mostly Cloudy
1:42 PM 46.4 °F 41.5 °F 37.4 °F 71% 30.19 in 10.0 mi SSW 10.4 mph 18.4 mph N/A   Mostly Cloudy
1:53 PM 46.9 °F - 37.0 °F 68% 30.20 in 10.0 mi SW 8.1 mph - N/A   Mostly Cloudy
2:41 PM 46.4 °F 41.9 °F 35.6 °F 66% 30.20 in 10.0 mi SW 9.2 mph - N/A   Mostly Cloudy
2:53 PM 46.9 °F - 35.1 °F 63% 30.22 in 10.0 mi SSW 9.2 mph - N/A   Mostly Cloudy
3:53 PM 46.9 °F - 35.1 °F 63% 30.24 in 10.0 mi SSW 9.2 mph 18.4 mph N/A   Overcast
4:53 PM 46.0 °F 41.0 °F 34.0 °F 63% 30.20 in 10.0 mi SSW 10.4 mph - 0.00 in   Mostly Cloudy
5:53 PM 46.0 °F 42.5 °F 35.1 °F 66% 30.20 in 10.0 mi South 6.9 mph - N/A   Mostly Cloudy
6:53 PM 45.0 °F 41.2 °F 35.1 °F 68% 30.19 in 10.0 mi SSW 6.9 mph - N/A   Partly Cloudy
8:53 PM 42.1 °F - 36.0 °F 79% 30.23 in 10.0 mi Calm Calm - N/A   Partly Cloudy
9:53 PM 41.0 °F - 36.0 °F 82% 30.25 in 10.0 mi Calm Calm - N/A   Mostly Cloudy
10:53 PM 39.9 °F - 36.0 °F 86% 30.25 in 10.0 mi Calm Calm - N/A   Clear
11:53 PM 39.0 °F - 35.1 °F 86% 30.25 in 10.0 mi Calm Calm - N/A   Clear